Location: Bad Salzschlirf
(50.3750°N, 9.3000°E)
Time: 03:33:56
(UTC+02:00)

ISS - Pass Details

Date: 09 July 2025
Orbit: 413 x 417 km, 51.6° (Epoch: 12 July)

Event Time Altitude Azimuth Distance (km) Brightness Sun altitude
Rises 23:34:35 0° 249° (WSW) 2,347 0.1 -13.2°
Reaches altitude 10° 23:36:40 10° 248° (WSW) 1,487 -0.9 -13.3°
Maximum altitude 23:40:00 79° 164° (SSE) 428 -3.9 -13.5°
Drops below altitude 10° 23:43:21 10° 76° (ENE) 1,493 -1.1 -13.8°
Sets 23:45:27 0° 75° (ENE) 2,359 0.0 -13.9°
